Time,TemperatureF,DewpointF,PressureIn,WindDirection,WindDirectionDegrees,WindSpeedMPH,WindSpeedGustMPH,Humidity,HourlyPrecipIn,Conditions,Clouds,dailyrainin,SolarRadiationWatts/m^2,SoftwareType,DateUTC
2013-01-11 00:00:00,33.1,31.5,29.76,SW,225,0.0,0.0,94,0.00,,,0.00,0,,2013-01-10 23:00:00,
2013-01-11 00:05:00,33.1,31.5,29.76,SW,225,0.0,0.0,94,0.00,,,0.00,0,,2013-01-10 23:05:00,
2013-01-11 00:10:00,33.3,31.8,29.76,SW,225,0.0,0.0,95,0.00,,,0.00,0,,2013-01-10 23:10:00,
2013-01-11 00:15:00,33.4,32.0,29.76,SW,225,0.0,0.0,95,0.00,,,0.00,0,,2013-01-10 23:15:00,
2013-01-11 00:20:00,33.4,32.0,29.76,SW,225,0.0,0.0,95,0.00,,,0.00,0,,2013-01-10 23:20:00,
2013-01-11 00:25:00,33.6,32.2,29.76,SW,225,0.0,0.0,95,0.00,,,0.00,0,,2013-01-10 23:25:00,
2013-01-11 00:30:00,33.4,32.0,29.76,SW,225,0.0,0.0,95,0.00,,,0.00,0,,2013-01-10 23:30:00,
2013-01-11 00:35:00,33.4,32.0,29.76,SW,225,0.0,0.0,95,0.00,,,0.00,0,,2013-01-10 23:35:00,
2013-01-11 00:40:00,33.3,31.8,29.76,SW,225,0.0,0.0,95,0.00,,,0.00,0,,2013-01-10 23:40:00,
2013-01-11 00:45:00,33.3,31.8,29.76,SW,225,0.0,0.0,95,0.00,,,0.00,0,,2013-01-10 23:45:00,
2013-01-11 00:50:00,33.3,31.8,29.76,SW,225,0.0,0.0,95,0.00,,,0.00,0,,2013-01-10 23:50:00,
2013-01-11 00:55:00,33.1,31.6,29.76,NW,315,1.3,3.1,95,0.00,,,0.00,0,,2013-01-10 23:55:00,
2013-01-11 01:00:00,33.1,31.6,29.76,North,0,0.0,0.0,95,0.00,,,0.00,0,,2013-01-11 00:00:00,
2013-01-11 01:05:00,32.7,31.3,29.76,North,0,0.8,0.0,95,0.00,,,0.00,0,,2013-01-11 00:05:00,
2013-01-11 01:15:00,32.5,31.1,29.76,North,0,0.0,0.0,95,-99.99,,,0.00,0,,2013-01-11 00:15:00,
2013-01-11 01:20:00,32.5,31.1,29.76,North,0,1.3,1.3,95,-99.99,,,0.00,0,,2013-01-11 00:20:00,
2013-01-11 01:30:00,32.4,30.9,29.76,North,0,0.0,0.0,95,-99.99,,,0.00,0,,2013-01-11 00:30:00,
2013-01-11 01:35:00,32.4,30.9,29.76,North,0,0.0,0.0,95,-99.99,,,0.00,0,,2013-01-11 00:35:00,
2013-01-11 01:40:00,32.4,30.9,29.76,North,0,0.0,0.0,95,-99.99,,,0.00,0,,2013-01-11 00:40:00,
2013-01-11 01:45:00,32.4,31.3,29.73,North,0,0.0,0.0,96,-99.99,,,0.00,0,,2013-01-11 00:45:00,
2013-01-11 01:50:00,32.5,31.5,29.73,North,0,0.0,0.0,96,0.00,,,0.00,0,,2013-01-11 00:50:00,
2013-01-11 02:00:00,32.9,31.8,29.76,North,0,0.0,0.0,96,0.00,,,0.00,0,,2013-01-11 01:00:00,
2013-01-11 02:05:00,33.1,32.0,29.73,North,0,0.0,0.0,96,0.00,,,0.00,0,,2013-01-11 01:05:00,
2013-01-11 02:15:00,33.4,32.4,29.73,North,0,0.0,0.0,96,0.00,,,0.00,0,,2013-01-11 01:15:00,
2013-01-11 02:20:00,33.8,32.7,29.73,North,0,0.0,0.0,96,0.00,,,0.00,0,,2013-01-11 01:20:00,
2013-01-11 02:25:00,33.8,32.7,29.76,North,0,0.0,0.0,96,0.00,,,0.00,0,,2013-01-11 01:25:00,
2013-01-11 02:30:00,33.8,32.7,29.76,North,0,0.0,0.0,96,0.00,,,0.00,0,,2013-01-11 01:30:00,
2013-01-11 02:35:00,34.0,32.9,29.76,North,0,0.0,0.4,96,0.00,,,0.00,0,,2013-01-11 01:35:00,
2013-01-11 02:40:00,34.0,32.9,29.76,North,0,0.4,0.0,96,0.00,,,0.00,0,,2013-01-11 01:40:00,
2013-01-11 02:45:00,34.2,33.1,29.76,North,0,0.0,0.0,96,0.00,,,0.00,0,,2013-01-11 01:45:00,
2013-01-11 02:50:00,34.2,33.1,29.76,North,0,0.0,0.0,96,0.00,,,0.00,0,,2013-01-11 01:50:00,
2013-01-11 02:55:00,34.3,33.3,29.73,North,0,0.0,0.0,96,0.00,,,0.00,0,,2013-01-11 01:55:00,
2013-01-11 03:00:00,34.5,33.4,29.73,North,0,0.0,0.0,96,0.00,,,0.00,0,,2013-01-11 02:00:00,
2013-01-11 03:05:00,34.7,33.6,29.73,North,0,0.0,0.0,96,0.00,,,0.00,0,,2013-01-11 02:05:00,
2013-01-11 03:10:00,34.9,33.8,29.73,North,0,0.0,0.0,96,0.00,,,0.00,0,,2013-01-11 02:10:00,
2013-01-11 03:15:00,35.2,34.2,29.73,North,0,0.0,0.0,96,0.00,,,0.00,0,,2013-01-11 02:15:00,
2013-01-11 03:20:00,35.4,34.3,29.73,North,0,0.0,0.0,96,0.00,,,0.00,0,,2013-01-11 02:20:00,
2013-01-11 03:25:00,35.6,34.5,29.73,North,0,0.0,0.0,96,0.00,,,0.00,0,,2013-01-11 02:25:00,
2013-01-11 03:30:00,35.8,34.7,29.73,North,0,0.0,0.0,96,0.00,,,0.00,0,,2013-01-11 02:30:00,
2013-01-11 03:35:00,35.6,34.5,29.70,North,0,0.4,1.7,96,0.00,,,0.00,0,,2013-01-11 02:35:00,
2013-01-11 03:40:00,35.6,34.5,29.70,North,0,0.0,0.0,96,0.00,,,0.00,0,,2013-01-11 02:40:00,
2013-01-11 03:45:00,35.6,34.5,29.73,ENE,67,0.0,0.0,96,0.00,,,0.00,0,,2013-01-11 02:45:00,
2013-01-11 03:50:00,35.6,34.5,29.73,North,0,0.4,0.0,96,0.00,,,0.00,0,,2013-01-11 02:50:00,
2013-01-11 03:55:00,35.6,34.5,29.73,North,0,0.0,0.0,96,0.00,,,0.00,0,,2013-01-11 02:55:00,
2013-01-11 04:00:00,35.6,34.5,29.73,East,90,0.4,1.3,96,0.00,,,0.00,0,,2013-01-11 03:00:00,
2013-01-11 04:05:00,35.4,34.3,29.70,East,90,0.0,0.0,96,0.00,,,0.00,0,,2013-01-11 03:05:00,
2013-01-11 04:10:00,35.4,34.3,29.70,East,90,0.0,0.0,96,0.00,,,0.00,0,,2013-01-11 03:10:00,
2013-01-11 04:15:00,35.4,34.3,29.70,SSE,157,0.0,0.8,96,0.00,,,0.00,0,,2013-01-11 03:15:00,
2013-01-11 04:20:00,35.4,34.3,29.70,SW,225,0.0,0.0,96,0.00,,,0.00,0,,2013-01-11 03:20:00,
2013-01-11 04:25:00,35.2,34.2,29.73,SW,225,0.0,0.0,96,0.00,,,0.00,0,,2013-01-11 03:25:00,
2013-01-11 04:30:00,35.2,34.2,29.73,SW,225,0.0,0.0,96,0.00,,,0.00,0,,2013-01-11 03:30:00,
2013-01-11 04:35:00,35.2,34.2,29.73,SW,225,0.0,0.0,96,0.00,,,0.00,0,,2013-01-11 03:35:00,
2013-01-11 04:40:00,35.2,34.2,29.73,SW,225,0.0,0.0,96,0.00,,,0.00,0,,2013-01-11 03:40:00,
2013-01-11 04:45:00,35.2,34.2,29.73,North,0,0.0,0.0,96,0.00,,,0.00,0,,2013-01-11 03:45:00,
2013-01-11 04:50:00,35.4,34.3,29.73,NNE,22,0.0,0.0,96,0.00,,,0.00,0,,2013-01-11 03:50:00,
2013-01-11 04:55:00,35.2,34.2,29.70,NNE,22,0.0,0.4,96,0.00,,,0.00,0,,2013-01-11 03:55:00,
2013-01-11 05:00:00,35.4,34.3,29.70,North,0,0.0,0.0,96,0.00,,,0.00,0,,2013-01-11 04:00:00,
2013-01-11 05:05:00,35.4,34.3,29.70,North,0,0.0,0.0,96,0.00,,,0.00,0,,2013-01-11 04:05:00,
2013-01-11 05:10:00,35.4,34.3,29.70,NE,45,0.0,0.4,96,0.00,,,0.00,0,,2013-01-11 04:10:00,
2013-01-11 05:15:00,35.4,34.3,29.70,North,0,0.0,0.0,96,0.00,,,0.00,0,,2013-01-11 04:15:00,
2013-01-11 05:20:00,35.4,34.3,29.70,NE,45,0.4,0.0,96,0.00,,,0.00,0,,2013-01-11 04:20:00,
2013-01-11 05:25:00,35.4,34.3,29.70,NE,45,0.0,0.0,96,0.00,,,0.00,0,,2013-01-11 04:25:00,
2013-01-11 05:30:00,35.4,34.3,29.70,NE,45,0.4,2.2,96,0.00,,,0.00,0,,2013-01-11 04:30:00,
2013-01-11 05:35:00,35.6,34.7,29.70,East,90,0.4,0.0,97,0.00,,,0.00,0,,2013-01-11 04:35:00,
2013-01-11 05:40:00,35.6,34.5,29.70,East,90,0.8,2.6,96,0.00,,,0.00,0,,2013-01-11 04:40:00,
2013-01-11 05:45:00,35.6,34.5,29.70,East,90,1.3,2.6,96,0.00,,,0.00,0,,2013-01-11 04:45:00,
2013-01-11 05:50:00,35.6,34.7,29.70,East,90,1.3,1.3,97,0.00,,,0.00,0,,2013-01-11 04:50:00,
2013-01-11 05:55:00,35.6,34.7,29.67,East,90,0.8,1.3,97,0.00,,,0.00,0,,2013-01-11 04:55:00,
2013-01-11 06:01:00,35.6,34.7,29.67,East,90,0.4,0.8,97,0.00,,,0.00,0,,2013-01-11 05:01:00,
2013-01-11 06:05:00,35.6,34.5,29.70,East,90,0.0,0.0,96,0.00,,,0.00,0,,2013-01-11 05:05:00,
2013-01-11 06:10:00,35.6,34.5,29.70,East,90,0.0,0.0,96,0.00,,,0.00,0,,2013-01-11 05:10:00,
2013-01-11 06:15:00,35.8,34.7,29.70,East,90,0.4,1.3,96,0.00,,,0.00,0,,2013-01-11 05:15:00,
2013-01-11 06:20:00,35.8,34.7,29.70,East,90,0.4,0.0,96,0.00,,,0.00,0,,2013-01-11 05:20:00,
2013-01-11 06:25:00,35.8,34.7,29.70,East,90,0.0,0.0,96,0.00,,,0.00,0,,2013-01-11 05:25:00,
2013-01-11 06:30:00,35.8,34.9,29.70,NE,45,0.0,0.8,97,0.00,,,0.00,0,,2013-01-11 05:30:00,
2013-01-11 06:35:00,36.0,35.1,29.70,East,90,0.0,0.0,97,0.00,,,0.00,0,,2013-01-11 05:35:00,
2013-01-11 06:40:00,36.0,35.1,29.70,East,90,0.0,0.0,97,0.00,,,0.00,0,,2013-01-11 05:40:00,
2013-01-11 06:45:00,36.0,35.1,29.70,ENE,67,0.4,1.7,97,0.00,,,0.00,0,,2013-01-11 05:45:00,
2013-01-11 06:50:00,36.0,35.1,29.70,East,90,0.0,0.0,97,0.00,,,0.00,0,,2013-01-11 05:50:00,
2013-01-11 06:55:00,36.0,34.9,29.70,East,90,0.8,1.7,96,0.00,,,0.00,0,,2013-01-11 05:55:00,
2013-01-11 07:00:00,36.0,35.1,29.70,NE,45,0.0,0.0,97,0.00,,,0.00,0,,2013-01-11 06:00:00,
2013-01-11 07:05:00,36.1,35.2,29.70,North,0,0.0,0.0,97,0.00,,,0.00,0,,2013-01-11 06:05:00,
2013-01-11 07:10:00,36.1,35.2,29.70,North,0,0.0,0.0,97,0.00,,,0.00,0,,2013-01-11 06:10:00,
2013-01-11 07:15:00,36.1,35.2,29.70,North,0,0.0,0.0,97,0.00,,,0.00,0,,2013-01-11 06:15:00,
2013-01-11 07:20:00,36.0,35.1,29.70,North,0,0.0,0.0,97,0.00,,,0.00,0,,2013-01-11 06:20:00,
2013-01-11 07:25:00,36.0,35.1,29.70,North,0,0.0,0.0,97,0.00,,,0.00,0,,2013-01-11 06:25:00,
2013-01-11 07:30:00,36.1,35.2,29.70,North,0,0.0,0.0,97,0.00,,,0.00,0,,2013-01-11 06:30:00,
2013-01-11 07:35:00,36.1,35.2,29.70,North,0,0.0,0.0,97,0.00,,,0.00,0,,2013-01-11 06:35:00,
2013-01-11 07:40:00,36.1,35.2,29.70,North,0,0.0,0.0,97,0.00,,,0.00,0,,2013-01-11 06:40:00,
2013-01-11 07:45:00,36.1,35.2,29.70,North,0,0.0,0.0,97,0.00,,,0.00,0,,2013-01-11 06:45:00,
2013-01-11 07:50:00,36.1,35.2,29.70,SW,225,0.0,0.0,97,0.00,,,0.00,1,,2013-01-11 06:50:00,
2013-01-11 07:55:00,36.1,35.2,29.70,SW,225,0.0,0.0,97,0.00,,,0.00,1,,2013-01-11 06:55:00,
2013-01-11 08:00:00,36.1,35.2,29.70,SW,225,0.0,0.0,97,0.00,,,0.00,1,,2013-01-11 07:00:00,
2013-01-11 08:05:00,36.3,35.4,29.70,SW,225,0.0,0.0,97,0.00,,,0.00,0,,2013-01-11 07:05:00,
2013-01-11 08:10:00,36.3,35.4,29.70,SW,225,0.0,0.0,97,0.00,,,0.00,1,,2013-01-11 07:10:00,
2013-01-11 08:15:00,36.3,35.4,29.70,SW,225,0.0,0.0,97,0.00,,,0.00,1,,2013-01-11 07:15:00,
2013-01-11 08:20:00,36.5,35.6,29.70,SW,225,0.0,0.0,97,0.00,,,0.00,2,,2013-01-11 07:20:00,
2013-01-11 08:25:00,36.5,35.6,29.70,SW,225,0.0,0.0,97,0.00,,,0.00,2,,2013-01-11 07:25:00,
2013-01-11 08:30:00,36.5,35.6,29.70,SW,225,0.0,0.0,97,0.00,,,0.00,2,,2013-01-11 07:30:00,
2013-01-11 08:35:00,36.5,35.6,29.70,SW,225,0.0,0.0,97,0.00,,,0.00,2,,2013-01-11 07:35:00,
2013-01-11 08:40:00,36.5,35.6,29.70,North,0,0.8,0.0,97,0.00,,,0.00,2,,2013-01-11 07:40:00,
2013-01-11 08:45:00,36.7,35.8,29.70,North,0,0.8,0.0,97,0.00,,,0.00,2,,2013-01-11 07:45:00,
2013-01-11 08:50:00,36.7,35.8,29.70,North,0,0.4,0.0,97,0.00,,,0.00,3,,2013-01-11 07:50:00,
2013-01-11 08:55:00,36.7,35.8,29.70,North,0,0.0,0.0,97,0.00,,,0.00,3,,2013-01-11 07:55:00,
2013-01-11 09:00:00,36.7,35.8,29.70,North,0,0.0,0.0,97,0.00,,,0.00,3,,2013-01-11 08:00:00,
2013-01-11 09:05:00,36.7,35.8,29.70,NE,45,0.0,0.0,97,0.00,,,0.00,4,,2013-01-11 08:05:00,
2013-01-11 09:10:00,36.7,35.8,29.70,North,0,0.0,0.4,97,0.00,,,0.00,5,,2013-01-11 08:10:00,
2013-01-11 09:15:00,36.7,35.8,29.70,North,0,0.8,0.8,97,0.00,,,0.00,5,,2013-01-11 08:15:00,
2013-01-11 09:20:00,36.7,35.8,29.70,North,0,1.3,1.3,97,0.00,,,0.00,8,,2013-01-11 08:20:00,
2013-01-11 09:25:00,36.7,35.8,29.70,North,0,1.3,1.3,97,0.00,,,0.00,8,,2013-01-11 08:25:00,
2013-01-11 09:30:00,36.7,35.8,29.70,NNE,22,0.0,0.0,97,0.00,,,0.00,18,,2013-01-11 08:30:00,
2013-01-11 09:35:00,36.9,36.0,29.70,North,0,0.0,0.4,97,0.00,,,0.00,20,,2013-01-11 08:35:00,
2013-01-11 09:40:00,36.9,36.0,29.70,North,0,0.8,1.3,97,0.00,,,0.00,18,,2013-01-11 08:40:00,
2013-01-11 09:45:00,36.9,36.0,29.70,NE,45,0.0,0.4,97,0.00,,,0.00,23,,2013-01-11 08:45:00,
2013-01-11 09:50:00,37.0,36.1,29.70,North,0,0.4,0.0,97,0.00,,,0.00,22,,2013-01-11 08:50:00,
2013-01-11 09:55:00,37.0,36.1,29.70,North,0,0.0,0.0,97,0.00,,,0.00,18,,2013-01-11 08:55:00,
2013-01-11 10:00:00,37.0,36.1,29.70,North,0,0.0,0.0,97,0.00,,,0.00,18,,2013-01-11 09:00:00,
2013-01-11 10:05:00,37.2,36.3,29.70,North,0,0.0,0.0,97,-99.99,,,0.00,35,,2013-01-11 09:05:00,
2013-01-11 10:15:00,37.4,36.5,29.70,ENE,67,0.0,1.3,97,-99.99,,,0.00,50,,2013-01-11 09:15:00,
2013-01-11 10:20:00,37.6,36.7,29.70,NE,45,0.0,0.4,97,0.00,,,0.00,89,,2013-01-11 09:20:00,
2013-01-11 10:25:00,37.6,36.7,29.70,NE,45,0.0,0.0,97,0.00,,,0.00,63,,2013-01-11 09:25:00,
2013-01-11 10:30:00,37.8,36.9,29.70,East,90,0.0,0.0,97,0.00,,,0.00,60,,2013-01-11 09:30:00,
2013-01-11 10:35:00,37.8,36.9,29.70,East,90,0.0,0.0,97,0.00,,,0.00,55,,2013-01-11 09:35:00,
2013-01-11 10:40:00,37.8,36.9,29.70,East,90,0.0,0.0,97,0.00,,,0.00,63,,2013-01-11 09:40:00,
2013-01-11 10:45:00,37.8,36.9,29.70,ESE,112,0.0,0.0,97,0.00,,,0.00,45,,2013-01-11 09:45:00,
2013-01-11 10:50:00,37.8,36.9,29.70,SW,225,0.0,0.0,97,0.00,,,0.00,43,,2013-01-11 09:50:00,
2013-01-11 10:55:00,37.8,36.9,29.70,SW,225,0.0,0.0,97,0.00,,,0.00,54,,2013-01-11 09:55:00,
2013-01-11 11:00:00,37.9,37.0,29.70,SW,225,0.0,0.0,97,0.00,,,0.00,55,,2013-01-11 10:00:00,
2013-01-11 11:05:00,37.9,37.0,29.70,SW,225,0.0,0.0,97,0.00,,,0.00,65,,2013-01-11 10:05:00,
2013-01-11 11:10:00,38.1,37.2,29.70,SW,225,1.7,2.2,97,0.00,,,0.00,54,,2013-01-11 10:10:00,
2013-01-11 11:15:00,38.1,37.2,29.70,SW,225,1.3,2.2,97,0.00,,,0.00,60,,2013-01-11 10:15:00,
2013-01-11 11:20:00,38.1,37.2,29.70,SW,225,0.8,0.0,97,0.00,,,0.00,48,,2013-01-11 10:20:00,
2013-01-11 11:25:00,38.1,37.2,29.70,SW,225,2.2,4.0,97,0.00,,,0.00,47,,2013-01-11 10:25:00,
2013-01-11 11:30:00,38.1,37.2,29.70,SW,225,2.6,3.5,97,0.00,,,0.00,45,,2013-01-11 10:30:00,
2013-01-11 11:35:00,38.1,37.2,29.70,SW,225,1.3,1.7,97,0.00,,,0.00,52,,2013-01-11 10:35:00,
2013-01-11 11:40:00,38.3,37.4,29.70,SW,225,0.8,1.3,97,0.00,,,0.00,67,,2013-01-11 10:40:00,
2013-01-11 11:45:00,38.5,37.6,29.70,SW,225,0.0,0.0,97,0.00,,,0.00,46,,2013-01-11 10:45:00,
2013-01-11 11:50:00,38.3,37.4,29.70,SW,225,0.8,1.7,97,0.00,,,0.00,45,,2013-01-11 10:50:00,
2013-01-11 11:55:00,38.5,38.1,29.70,SW,225,0.8,1.7,99,0.00,,,0.00,47,,2013-01-11 10:55:00,
2013-01-11 12:00:00,38.5,37.9,29.70,SW,225,0.8,1.3,98,0.00,,,0.00,53,,2013-01-11 11:00:00,
2013-01-11 12:05:00,38.5,37.9,29.70,SW,225,0.4,0.8,98,0.00,,,0.00,38,,2013-01-11 11:05:00,
2013-01-11 12:10:00,38.5,37.9,29.70,SW,225,0.0,0.0,98,0.00,,,0.00,49,,2013-01-11 11:10:00,
2013-01-11 12:15:00,38.5,37.9,29.70,SW,225,0.0,0.0,98,0.00,,,0.00,51,,2013-01-11 11:15:00,
2013-01-11 12:20:00,38.7,38.1,29.70,SW,225,0.0,0.0,98,0.00,,,0.00,42,,2013-01-11 11:20:00,
2013-01-11 12:25:00,38.5,37.9,29.70,SW,225,0.0,0.0,98,0.00,,,0.00,47,,2013-01-11 11:25:00,
2013-01-11 12:30:00,38.5,37.9,29.70,SW,225,1.7,2.2,98,0.00,,,0.00,43,,2013-01-11 11:30:00,
2013-01-11 12:35:00,38.5,37.9,29.70,SW,225,0.0,2.2,98,0.00,,,0.00,37,,2013-01-11 11:35:00,
2013-01-11 12:40:00,38.7,38.1,29.70,SW,225,0.0,0.0,98,0.00,,,0.00,56,,2013-01-11 11:40:00,
2013-01-11 12:45:00,38.8,38.3,29.70,SW,225,1.3,1.7,98,0.00,,,0.00,46,,2013-01-11 11:45:00,
2013-01-11 12:50:00,38.8,38.3,29.70,SW,225,1.7,1.7,98,0.00,,,0.00,46,,2013-01-11 11:50:00,
2013-01-11 12:55:00,38.8,38.3,29.70,SW,225,1.3,2.2,98,0.00,,,0.00,84,,2013-01-11 11:55:00,
2013-01-11 13:00:00,38.8,38.3,29.70,SW,225,1.3,1.7,98,0.00,,,0.00,56,,2013-01-11 12:00:00,
2013-01-11 13:05:00,39.0,38.5,29.70,SW,225,0.0,0.0,98,0.00,,,0.00,69,,2013-01-11 12:05:00,
2013-01-11 13:10:00,38.8,38.3,29.70,SW,225,0.4,1.3,98,0.00,,,0.00,68,,2013-01-11 12:10:00,
2013-01-11 13:15:00,39.0,38.5,29.70,SW,225,0.0,0.0,98,0.00,,,0.00,51,,2013-01-11 12:15:00,
2013-01-11 13:20:00,39.0,38.5,29.70,SW,225,0.0,0.0,98,0.00,,,0.00,49,,2013-01-11 12:20:00,
2013-01-11 13:25:00,39.2,38.7,29.70,SW,225,0.0,0.0,98,0.00,,,0.00,44,,2013-01-11 12:25:00,
2013-01-11 13:30:00,39.2,38.8,29.70,SW,225,0.0,0.0,99,0.00,,,0.00,53,,2013-01-11 12:30:00,
2013-01-11 13:35:00,39.4,38.8,29.70,SW,225,0.0,0.0,98,0.00,,,0.00,38,,2013-01-11 12:35:00,
2013-01-11 13:40:00,39.4,38.8,29.70,SW,225,0.4,0.0,98,0.00,,,0.00,58,,2013-01-11 12:40:00,
2013-01-11 13:45:00,39.4,38.8,29.70,SW,225,0.0,0.0,98,0.00,,,0.00,54,,2013-01-11 12:45:00,
2013-01-11 13:50:00,39.6,39.0,29.70,SW,225,0.0,0.0,98,0.00,,,0.00,64,,2013-01-11 12:50:00,
2013-01-11 13:55:00,39.7,39.2,29.70,SW,225,0.0,0.0,98,0.00,,,0.00,48,,2013-01-11 12:55:00,
2013-01-11 14:00:00,39.7,39.2,29.70,SW,225,0.0,0.0,98,0.00,,,0.00,49,,2013-01-11 13:00:00,
2013-01-11 14:05:00,39.7,39.2,29.70,SW,225,0.0,0.0,98,0.00,,,0.00,48,,2013-01-11 13:05:00,
2013-01-11 14:10:00,39.9,39.4,29.70,SW,225,0.0,0.0,98,0.00,,,0.00,42,,2013-01-11 13:10:00,
2013-01-11 14:15:00,39.9,39.4,29.73,SW,225,0.0,0.0,98,0.00,,,0.00,48,,2013-01-11 13:15:00,
2013-01-11 14:20:00,39.9,39.4,29.73,SW,225,0.0,0.0,98,0.00,,,0.00,41,,2013-01-11 13:20:00,
2013-01-11 14:25:00,39.9,39.4,29.73,SW,225,0.0,0.0,98,0.00,,,0.00,41,,2013-01-11 13:25:00,
2013-01-11 14:30:00,39.9,39.4,29.73,SW,225,0.0,0.0,98,0.00,,,0.00,48,,2013-01-11 13:30:00,
2013-01-11 14:35:00,40.1,39.6,29.73,SW,225,0.0,0.0,98,0.00,,,0.00,46,,2013-01-11 13:35:00,
2013-01-11 14:40:00,40.1,39.6,29.73,SW,225,0.0,0.0,98,0.00,,,0.00,33,,2013-01-11 13:40:00,
2013-01-11 14:45:00,40.1,39.6,29.73,SW,225,0.0,0.0,98,0.00,,,0.00,34,,2013-01-11 13:45:00,
2013-01-11 14:50:00,40.1,39.2,29.73,SW,225,0.0,0.0,97,0.00,,,0.00,42,,2013-01-11 13:50:00,
2013-01-11 14:55:00,40.1,39.2,29.73,SW,225,0.0,0.0,97,0.00,,,0.00,37,,2013-01-11 13:55:00,
2013-01-11 15:00:00,40.3,39.4,29.73,SW,225,0.0,0.0,97,0.00,,,0.00,30,,2013-01-11 14:00:00,
2013-01-11 15:05:00,40.3,39.4,29.73,SW,225,0.0,0.0,97,0.00,,,0.00,27,,2013-01-11 14:05:00,
2013-01-11 15:10:00,40.3,39.4,29.73,WSW,247,0.0,0.0,97,0.00,,,0.00,25,,2013-01-11 14:10:00,
2013-01-11 15:15:00,40.3,39.4,29.73,NW,315,0.0,0.0,97,0.00,,,0.00,21,,2013-01-11 14:15:00,
2013-01-11 15:20:00,40.3,39.7,29.73,NE,45,0.0,0.0,98,0.00,,,0.00,22,,2013-01-11 14:20:00,
2013-01-11 15:25:00,40.3,39.7,29.73,NE,45,0.0,0.0,98,0.00,,,0.00,23,,2013-01-11 14:25:00,
2013-01-11 15:30:00,40.3,39.7,29.73,NE,45,0.0,0.0,98,0.00,,,0.00,18,,2013-01-11 14:30:00,
2013-01-11 15:35:00,40.3,39.7,29.73,NE,45,0.0,0.0,98,0.00,,,0.00,17,,2013-01-11 14:35:00,
2013-01-11 15:40:00,40.3,39.7,29.73,NE,45,0.0,0.0,98,0.00,,,0.00,17,,2013-01-11 14:40:00,
2013-01-11 15:45:00,40.3,39.7,29.76,NE,45,0.0,0.0,98,0.00,,,0.00,17,,2013-01-11 14:45:00,
2013-01-11 15:50:00,40.3,39.7,29.76,ENE,67,0.4,1.3,98,0.00,,,0.00,16,,2013-01-11 14:50:00,
2013-01-11 15:55:00,40.3,39.7,29.73,East,90,0.8,0.8,98,0.00,,,0.00,16,,2013-01-11 14:55:00,
2013-01-11 16:00:00,40.3,39.7,29.73,East,90,0.8,0.8,98,0.00,,,0.00,11,,2013-01-11 15:00:00,
2013-01-11 16:05:00,40.3,39.7,29.76,East,90,0.4,0.4,98,0.00,,,0.00,8,,2013-01-11 15:05:00,
2013-01-11 16:10:00,40.5,39.9,29.76,East,90,0.4,0.0,98,0.00,,,0.00,6,,2013-01-11 15:10:00,
2013-01-11 16:15:00,40.5,39.9,29.73,East,90,0.0,0.0,98,0.00,,,0.00,5,,2013-01-11 15:15:00,
2013-01-11 16:20:00,40.5,39.9,29.73,East,90,0.4,0.0,98,0.00,,,0.00,5,,2013-01-11 15:20:00,
2013-01-11 16:25:00,40.5,39.6,29.76,East,90,0.0,0.0,97,0.00,,,0.00,5,,2013-01-11 15:25:00,
2013-01-11 16:30:00,40.5,39.6,29.76,East,90,0.0,0.0,97,0.00,,,0.00,4,,2013-01-11 15:30:00,
2013-01-11 16:35:00,40.5,39.6,29.76,East,90,0.0,0.0,97,0.00,,,0.00,3,,2013-01-11 15:35:00,
2013-01-11 16:40:00,40.5,39.6,29.76,East,90,0.0,0.0,97,-99.99,,,0.00,2,,2013-01-11 15:40:00,
2013-01-11 16:45:00,40.5,39.6,29.76,East,90,0.0,0.0,97,-99.99,,,0.00,2,,2013-01-11 15:45:00,
2013-01-11 16:50:00,40.5,39.6,29.76,East,90,0.0,0.0,97,-99.99,,,0.00,2,,2013-01-11 15:50:00,
2013-01-11 16:55:00,40.5,39.6,29.76,East,90,0.0,0.0,97,-99.99,,,0.00,2,,2013-01-11 15:55:00,
2013-01-11 17:00:00,40.5,39.6,29.76,East,90,0.0,0.0,97,-99.99,,,0.00,2,,2013-01-11 16:00:00,
2013-01-11 17:05:00,40.5,39.6,29.79,East,90,0.0,0.0,97,-99.99,,,0.00,1,,2013-01-11 16:05:00,
2013-01-11 17:10:00,40.5,39.6,29.79,East,90,0.0,0.0,97,-99.99,,,0.00,1,,2013-01-11 16:10:00,
2013-01-11 17:15:00,40.5,39.6,29.76,East,90,0.0,0.0,97,-99.99,,,0.00,1,,2013-01-11 16:15:00,
2013-01-11 17:20:00,40.5,39.4,29.76,East,90,0.0,0.0,96,-99.99,,,0.00,1,,2013-01-11 16:20:00,
2013-01-11 17:25:00,40.6,39.6,29.79,East,90,0.0,0.0,96,-99.99,,,0.00,1,,2013-01-11 16:25:00,
2013-01-11 17:30:00,40.6,39.6,29.79,East,90,0.0,0.0,96,-99.99,,,0.00,0,,2013-01-11 16:30:00,
2013-01-11 17:35:00,40.5,39.4,29.79,East,90,0.0,0.0,96,-99.99,,,0.00,0,,2013-01-11 16:35:00,
2013-01-11 17:44:00,40.5,39.4,29.79,East,90,0.0,0.0,96,-99.99,,,0.00,0,,2013-01-11 16:44:00,
2013-01-11 17:49:00,40.5,39.4,29.79,East,90,0.0,0.0,96,-99.99,,,0.00,0,,2013-01-11 16:49:00,
2013-01-11 17:54:00,40.5,39.4,29.79,East,90,0.0,0.0,96,-99.99,,,0.00,0,,2013-01-11 16:54:00,
2013-01-11 17:59:00,40.5,39.4,29.79,East,90,0.0,0.0,96,0.00,,,0.00,0,,2013-01-11 16:59:00,
2013-01-11 18:04:00,40.6,39.6,29.79,East,90,0.0,0.0,96,0.00,,,0.00,0,,2013-01-11 17:04:00,
2013-01-11 18:09:00,40.6,39.6,29.79,East,90,0.0,0.0,96,0.00,,,0.00,0,,2013-01-11 17:09:00,
2013-01-11 18:14:00,40.6,39.6,29.79,East,90,0.0,0.0,96,0.00,,,0.00,0,,2013-01-11 17:14:00,
2013-01-11 18:19:00,40.5,39.0,29.79,East,90,0.0,0.0,95,0.00,,,0.00,0,,2013-01-11 17:19:00,
2013-01-11 18:24:00,40.5,39.4,29.79,East,90,0.0,0.0,96,0.00,,,0.00,0,,2013-01-11 17:24:00,
2013-01-11 18:29:00,40.5,39.4,29.79,SW,225,0.0,0.0,96,0.00,,,0.00,0,,2013-01-11 17:29:00,
2013-01-11 18:34:00,40.5,39.0,29.79,SW,225,0.0,0.0,95,0.00,,,0.00,0,,2013-01-11 17:34:00,
2013-01-11 18:39:00,40.5,39.4,29.79,SW,225,0.0,0.0,96,0.00,,,0.00,0,,2013-01-11 17:39:00,
2013-01-11 18:44:00,40.5,39.4,29.79,SW,225,0.0,0.0,96,0.00,,,0.00,0,,2013-01-11 17:44:00,
2013-01-11 18:49:00,40.5,39.4,29.79,SW,225,0.0,0.0,96,0.00,,,0.00,0,,2013-01-11 17:49:00,
2013-01-11 18:54:00,40.5,39.0,29.79,SW,225,0.0,0.0,95,0.00,,,0.00,0,,2013-01-11 17:54:00,
2013-01-11 18:59:00,40.5,39.4,29.79,SW,225,0.0,0.0,96,0.00,,,0.00,0,,2013-01-11 17:59:00,
2013-01-11 19:04:00,40.5,39.4,29.79,SW,225,0.0,0.0,96,0.00,,,0.00,0,,2013-01-11 18:04:00,
2013-01-11 19:09:00,40.5,39.4,29.79,SW,225,0.0,0.0,96,0.00,,,0.00,0,,2013-01-11 18:09:00,
2013-01-11 19:14:00,40.5,39.4,29.82,SW,225,0.0,0.0,96,0.00,,,0.00,0,,2013-01-11 18:14:00,
2013-01-11 19:19:00,40.5,39.0,29.82,SW,225,0.0,0.0,95,0.00,,,0.00,0,,2013-01-11 18:19:00,
2013-01-11 19:24:00,40.5,39.0,29.82,SW,225,0.0,0.0,95,0.00,,,0.00,0,,2013-01-11 18:24:00,
2013-01-11 19:29:00,40.5,39.0,29.82,SW,225,0.0,0.0,95,0.00,,,0.00,0,,2013-01-11 18:29:00,
2013-01-11 19:34:00,40.5,39.0,29.79,SW,225,0.0,0.0,95,0.00,,,0.00,0,,2013-01-11 18:34:00,
2013-01-11 19:39:00,40.5,39.0,29.79,SW,225,0.0,0.0,95,0.00,,,0.00,0,,2013-01-11 18:39:00,
2013-01-11 19:44:00,40.5,39.0,29.82,SW,225,0.0,0.0,95,0.00,,,0.00,0,,2013-01-11 18:44:00,
2013-01-11 19:49:00,40.3,38.8,29.82,SW,225,0.0,0.0,95,0.00,,,0.00,0,,2013-01-11 18:49:00,
2013-01-11 19:54:00,40.3,38.8,29.82,SW,225,0.0,0.0,95,0.00,,,0.00,0,,2013-01-11 18:54:00,
2013-01-11 19:59:00,40.3,38.8,29.82,East,90,0.0,0.8,95,0.00,,,0.00,0,,2013-01-11 18:59:00,
2013-01-11 20:04:00,40.5,38.8,29.82,East,90,0.0,0.0,94,0.00,,,0.00,0,,2013-01-11 19:04:00,
2013-01-11 20:09:00,40.6,39.0,29.82,East,90,0.0,0.0,94,0.00,,,0.00,0,,2013-01-11 19:09:00,
2013-01-11 20:14:00,40.6,39.0,29.82,East,90,0.0,0.0,94,0.00,,,0.00,0,,2013-01-11 19:14:00,
2013-01-11 20:19:00,40.6,38.7,29.82,East,90,0.0,0.0,93,0.00,,,0.00,0,,2013-01-11 19:19:00,
2013-01-11 20:24:00,40.6,38.7,29.85,East,90,0.0,0.0,93,0.00,,,0.00,0,,2013-01-11 19:24:00,
2013-01-11 20:29:00,40.6,38.7,29.85,NE,45,0.0,0.0,93,0.00,,,0.00,0,,2013-01-11 19:29:00,
2013-01-11 20:34:00,40.6,38.7,29.85,NE,45,1.3,2.2,93,0.00,,,0.00,0,,2013-01-11 19:34:00,
2013-01-11 20:39:00,40.6,38.7,29.85,NE,45,0.0,0.0,93,0.00,,,0.00,0,,2013-01-11 19:39:00,
2013-01-11 20:44:00,40.6,38.5,29.85,East,90,1.3,2.2,92,0.00,,,0.00,0,,2013-01-11 19:44:00,
2013-01-11 20:49:00,40.8,38.3,29.85,East,90,0.4,0.0,91,0.00,,,0.00,0,,2013-01-11 19:49:00,
2013-01-11 20:54:00,40.8,38.3,29.85,North,0,0.4,0.0,91,0.00,,,0.00,0,,2013-01-11 19:54:00,
2013-01-11 20:59:00,40.8,38.3,29.85,NE,45,0.4,1.7,91,0.00,,,0.00,0,,2013-01-11 19:59:00,
2013-01-11 21:04:00,40.8,38.3,29.85,NE,45,0.0,0.4,91,0.00,,,0.00,0,,2013-01-11 20:04:00,
2013-01-11 21:09:00,40.6,37.8,29.85,East,90,0.8,1.3,90,0.00,,,0.00,0,,2013-01-11 20:09:00,
2013-01-11 21:14:00,40.6,37.8,29.85,East,90,1.3,1.3,90,0.00,,,0.00,0,,2013-01-11 20:14:00,
2013-01-11 21:19:00,40.6,37.6,29.85,East,90,0.4,1.7,89,0.00,,,0.00,0,,2013-01-11 20:19:00,
2013-01-11 21:24:00,40.8,37.8,29.85,East,90,0.4,0.0,89,0.00,,,0.00,0,,2013-01-11 20:24:00,
2013-01-11 21:29:00,40.6,37.6,29.85,SW,225,0.0,0.0,89,0.00,,,0.00,0,,2013-01-11 20:29:00,
2013-01-11 21:34:00,40.8,37.4,29.85,SW,225,0.0,0.8,88,0.00,,,0.00,0,,2013-01-11 20:34:00,
2013-01-11 21:39:00,40.6,37.2,29.85,SW,225,0.0,0.0,88,0.00,,,0.00,0,,2013-01-11 20:39:00,
2013-01-11 21:44:00,40.6,37.2,29.85,SW,225,0.0,0.0,88,0.00,,,0.00,0,,2013-01-11 20:44:00,
2013-01-11 21:49:00,40.6,37.2,29.85,SW,225,0.0,0.0,88,-99.99,,,0.00,0,,2013-01-11 20:49:00,
2013-01-11 21:54:00,40.6,37.2,29.85,SW,225,0.0,0.0,88,-99.99,,,0.00,0,,2013-01-11 20:54:00,
2013-01-11 21:59:00,40.6,37.2,29.85,SW,225,0.0,0.0,88,-99.99,,,0.00,0,,2013-01-11 20:59:00,
2013-01-11 22:04:00,40.6,37.2,29.88,SW,225,0.0,0.0,88,-99.99,,,0.00,0,,2013-01-11 21:04:00,
2013-01-11 22:09:00,40.6,37.2,29.88,SW,225,0.0,0.0,88,-99.99,,,0.00,0,,2013-01-11 21:09:00,
2013-01-11 22:14:00,40.6,37.2,29.88,WSW,247,1.7,2.2,88,-99.99,,,0.00,0,,2013-01-11 21:14:00,
2013-01-11 22:19:00,40.6,37.2,29.88,North,0,0.8,0.8,88,-99.99,,,0.00,0,,2013-01-11 21:19:00,
2013-01-11 22:24:00,40.6,37.2,29.88,North,0,0.0,0.0,88,-99.99,,,0.00,0,,2013-01-11 21:24:00,
2013-01-11 22:29:00,40.6,37.2,29.88,North,0,0.0,0.0,88,-99.99,,,0.00,0,,2013-01-11 21:29:00,
2013-01-11 22:34:00,40.6,37.2,29.88,North,0,0.0,0.0,88,-99.99,,,0.00,0,,2013-01-11 21:34:00,
2013-01-11 22:39:00,40.6,37.2,29.88,North,0,0.0,0.0,88,-99.99,,,0.00,0,,2013-01-11 21:39:00,
2013-01-11 22:44:00,40.6,37.2,29.88,North,0,0.0,0.0,88,-99.99,,,0.00,0,,2013-01-11 21:44:00,
2013-01-11 22:49:00,40.6,37.2,29.88,North,0,0.0,0.0,88,-99.99,,,0.00,0,,2013-01-11 21:49:00,
2013-01-11 22:54:00,40.6,37.2,29.88,North,0,0.0,0.0,88,-99.99,,,0.00,0,,2013-01-11 21:54:00,
2013-01-11 22:59:00,40.5,37.0,29.88,SW,225,0.0,0.0,88,0.00,,,0.00,0,,2013-01-11 21:59:00,
2013-01-11 23:04:00,40.1,37.0,29.88,SW,225,0.0,0.0,89,0.00,,,0.00,0,,2013-01-11 22:04:00,
2013-01-11 23:09:00,39.9,37.2,29.88,SW,225,0.0,0.0,90,0.00,,,0.00,0,,2013-01-11 22:09:00,
2013-01-11 23:14:00,39.7,37.0,29.88,SW,225,0.0,0.0,90,0.00,,,0.00,0,,2013-01-11 22:14:00,
2013-01-11 23:19:00,39.6,37.0,29.88,SW,225,0.0,0.0,91,0.00,,,0.00,0,,2013-01-11 22:19:00,
2013-01-11 23:24:00,39.6,37.0,29.88,SW,225,0.0,0.0,91,0.00,,,0.00,0,,2013-01-11 22:24:00,
2013-01-11 23:34:00,39.0,36.5,29.88,SW,225,0.0,0.0,91,0.00,,,0.00,0,,2013-01-11 22:34:00,
2013-01-11 23:39:00,38.8,36.3,29.88,SW,225,0.0,0.0,91,0.00,,,0.00,0,,2013-01-11 22:39:00,
2013-01-11 23:44:00,38.8,36.7,29.88,SW,225,0.0,0.0,92,0.00,,,0.00,0,,2013-01-11 22:44:00,
2013-01-11 23:49:00,38.7,36.5,29.88,SW,225,0.0,0.0,92,0.00,,,0.00,0,,2013-01-11 22:49:00,
2013-01-11 23:54:00,38.7,36.5,29.88,SW,225,0.0,0.0,92,0.00,,,0.00,0,,2013-01-11 22:54:00,
2013-01-11 23:59:00,38.5,36.3,29.88,SW,225,0.0,0.0,92,0.00,,,0.00,0,,2013-01-11 22:59:00,